Flag for Netherlands Weather past 2 weeks in Kralendijk (Bonaire), Netherlands

Now
81 °F

Warm.


Feels Like: 87 °F
Forecast: 81 / 88 °F
Wind: 18 mph from East

Location: Flamingo Airport - Bonaire

Current Time: Jul 24, 2014 at 12:39:04 AM

Latest Report: Jul 24, 2014 at 12:00 AM


Visibility: N/A

Pressure: 29.95 "Hg

Humidity: 89%

Dew point: 77 °F

Location of Kralendijk (Bonaire)Location

Historic Weather in Kralendijk (Bonaire) — Graph

°F

Kralendijk (Bonaire) temperature yesterday

Maximum temperature yesterday: 86 °F (at 10:00 AM)
Minimum temperature yesterday: 81 °F (at 12:00 AM)
Average temperature yesterday: 83 °F

Past Weeks' High & Low Weather Summary

 TemperatureHumidityPressure
High90 °F (Jul 12, 2:00 PM)94% (Jul 11, 2:00 AM)30.04 "Hg (Jul 11, 2:00 AM)
Low79 °F (Jul 11, 2:00 AM)62% (Jul 9, 1:00 PM)29.86 "Hg (Jul 23, 4:00 PM)
Average83 °F77%29.95 "Hg
* Reported Jul 8 11:00 PM — Jul 23 11:00 PM, Kralendijk (Bonaire), Weather by CustomWeather, © 2014

Note: Actual official high and low records may vary slightly from our data, if they occured in-between our weather recording intervals... More about our weather records

Advertising

Kralendijk (Bonaire) weather history for previous 24 hours

 ConditionsComfort  
Time TempWeatherWind HumidityBarometerVisibility
11:00 PM
Jul 23
81 °FWarm.14 mph84%29.95 "HgN/A
8:00 PM82 °FPassing clouds.18 mph79%29.89 "HgN/A
7:00 PM82 °FPassing clouds.17 mph74%29.89 "HgN/A
6:00 PM84 °FPassing clouds.24 mph74%29.86 "HgN/A
5:00 PM84 °FScattered clouds.25 mph74%29.86 "HgN/A
4:00 PM84 °FPassing clouds.25 mph70%29.86 "HgN/A
3:00 PM86 °FScattered clouds.23 mph75%29.89 "HgN/A
2:00 PM81 °FScattered showers. Scattered clouds.22 mph79%29.92 "HgN/A
1:00 PM86 °FPartly sunny.20 mph70%29.95 "HgN/A
12:00 PM86 °FScattered clouds.18 mph70%29.98 "HgN/A
11:00 AM86 °FScattered clouds.17 mph70%29.98 "HgN/A
10:00 AM86 °FScattered clouds.17 mph70%29.98 "HgN/A
9:00 AM84 °FScattered clouds.16 mph79%29.98 "HgN/A
8:00 AM82 °FScattered clouds.16 mph84%29.95 "HgN/A
7:00 AM81 °FWarm.15 mph84%29.95 "HgN/A
5:00 AM81 °FWarm.14 mph84%29.92 "HgN/A
4:00 AM81 °FWarm.16 mph84%29.92 "HgN/A
3:00 AM81 °FWarm.16 mph84%29.92 "HgN/A
1:00 AM81 °FWarm.15 mph84%29.95 "HgN/A
12:00 AM81 °FWarm.20 mph84%29.95 "HgN/A
Weather by CustomWeather, © 2014

See weather overviewHow to use our weather pages